Time,TemperatureF,DewpointF,PressureIn,WindDirection,WindDirectionDegrees,WindSpeedMPH,WindSpeedGustMPH,Humidity,HourlyPrecipIn,Conditions,Clouds,dailyrainin,SoftwareType,DateUTC
2013-03-05 00:07:00,46.9,23.9,30.18,North,-999,0.0,0.0,40,0.00,,,-99.99,FreeWX 2.05,2013-03-05 05:07:00,
2013-03-05 00:17:00,46.9,23.9,30.15,North,-999,0.0,0.0,40,0.00,,,-99.99,FreeWX 2.05,2013-03-05 05:17:00,
2013-03-05 00:27:00,46.8,23.7,30.15,North,-999,0.0,0.0,40,0.00,,,-99.99,FreeWX 2.05,2013-03-05 05:27:00,
2013-03-05 00:37:00,46.9,24.4,30.15,North,-999,0.0,0.0,41,0.00,,,-99.99,FreeWX 2.05,2013-03-05 05:37:00,
2013-03-05 00:47:00,46.9,24.4,30.15,North,-999,0.0,0.0,41,0.00,,,-99.99,FreeWX 2.05,2013-03-05 05:47:00,
2013-03-05 00:57:00,46.8,24.3,30.15,North,-999,0.0,0.0,41,0.00,,,-99.99,FreeWX 2.05,2013-03-05 05:57:00,
2013-03-05 01:07:00,46.8,24.3,30.15,North,-999,0.0,0.0,41,0.00,,,-99.99,FreeWX 2.05,2013-03-05 06:07:00,
2013-03-05 01:17:00,46.4,24.6,30.15,North,-999,0.0,0.0,42,0.00,,,-99.99,FreeWX 2.05,2013-03-05 06:17:00,
2013-03-05 01:27:00,46.2,24.4,30.15,North,-999,0.0,0.0,42,0.00,,,-99.99,FreeWX 2.05,2013-03-05 06:27:00,
2013-03-05 01:47:00,46.0,24.8,30.15,North,-999,0.0,0.0,43,0.00,,,-99.99,FreeWX 2.05,2013-03-05 06:47:00,
2013-03-05 01:57:00,46.2,25.5,30.15,North,-999,0.0,0.0,44,0.00,,,-99.99,FreeWX 2.05,2013-03-05 06:57:00,
2013-03-05 02:07:00,46.0,25.3,30.15,North,-999,0.0,0.0,44,0.00,,,-99.99,FreeWX 2.05,2013-03-05 07:07:00,
2013-03-05 02:17:00,46.0,25.3,30.15,North,-999,0.0,0.0,44,0.00,,,-99.99,FreeWX 2.05,2013-03-05 07:17:00,
2013-03-05 02:27:00,45.9,25.7,30.15,North,-999,0.0,0.0,45,0.00,,,-99.99,FreeWX 2.05,2013-03-05 07:27:00,
2013-03-05 02:37:00,45.7,25.5,30.15,North,-999,0.0,0.0,45,0.00,,,-99.99,FreeWX 2.05,2013-03-05 07:37:00,
2013-03-05 02:47:00,45.5,25.9,30.15,North,-999,0.0,0.0,46,0.00,,,-99.99,FreeWX 2.05,2013-03-05 07:47:00,
2013-03-05 02:57:00,45.3,26.2,30.15,North,-999,0.0,0.0,47,0.00,,,-99.99,FreeWX 2.05,2013-03-05 07:57:00,
2013-03-05 03:07:00,45.3,26.2,30.15,North,-999,0.0,0.0,47,0.00,,,-99.99,FreeWX 2.05,2013-03-05 08:07:00,
2013-03-05 03:17:00,45.1,26.6,30.15,North,-999,0.0,0.0,48,0.00,,,-99.99,FreeWX 2.05,2013-03-05 08:17:00,
2013-03-05 03:27:00,45.1,26.6,30.15,North,-999,0.0,0.0,48,0.00,,,-99.99,FreeWX 2.05,2013-03-05 08:27:00,
2013-03-05 03:37:00,45.0,26.4,30.12,North,-999,0.0,0.0,48,0.00,,,-99.99,FreeWX 2.05,2013-03-05 08:37:00,
2013-03-05 03:47:00,44.8,26.2,30.15,North,-999,0.0,0.0,48,0.00,,,-99.99,FreeWX 2.05,2013-03-05 08:47:00,
2013-03-05 03:57:00,44.8,26.8,30.15,North,-999,0.0,0.0,49,0.00,,,-99.99,FreeWX 2.05,2013-03-05 08:57:00,
2013-03-05 04:07:00,44.4,26.4,30.15,North,-999,0.0,0.0,49,0.00,,,-99.99,FreeWX 2.05,2013-03-05 09:07:00,
2013-03-05 04:17:00,44.4,26.4,30.12,North,-999,0.0,0.0,49,0.00,,,-99.99,FreeWX 2.05,2013-03-05 09:17:00,
2013-03-05 04:27:00,44.4,27.0,30.12,North,-999,0.0,0.0,50,0.00,,,-99.99,FreeWX 2.05,2013-03-05 09:27:00,
2013-03-05 04:37:00,44.1,26.6,30.12,North,-999,0.0,0.0,50,0.00,,,-99.99,FreeWX 2.05,2013-03-05 09:37:00,
2013-03-05 04:47:00,43.9,26.4,30.12,North,-999,0.0,0.0,50,0.00,,,-99.99,FreeWX 2.05,2013-03-05 09:47:00,
2013-03-05 04:57:00,44.1,27.1,30.12,North,-999,0.0,0.0,51,0.00,,,-99.99,FreeWX 2.05,2013-03-05 09:57:00,
2013-03-05 05:07:00,43.9,27.0,30.12,North,-999,0.0,0.0,51,0.00,,,-99.99,FreeWX 2.05,2013-03-05 10:07:00,
2013-03-05 05:17:00,43.7,27.3,30.12,North,-999,0.0,0.0,52,0.00,,,-99.99,FreeWX 2.05,2013-03-05 10:17:00,
2013-03-05 05:27:00,43.9,27.3,30.12,North,-999,0.0,0.0,52,0.00,,,-99.99,FreeWX 2.05,2013-03-05 10:27:00,
2013-03-05 05:37:00,44.1,27.5,30.12,North,-999,0.0,0.0,52,0.00,,,-99.99,FreeWX 2.05,2013-03-05 10:37:00,
2013-03-05 05:47:00,44.1,27.5,30.15,North,-999,0.0,0.0,52,0.00,,,-99.99,FreeWX 2.05,2013-03-05 10:47:00,
2013-03-05 05:57:00,44.1,28.0,30.15,North,-999,0.0,0.0,53,0.00,,,-99.99,FreeWX 2.05,2013-03-05 10:57:00,
2013-03-05 06:07:00,44.1,28.0,30.15,North,-999,0.0,0.0,53,0.00,,,-99.99,FreeWX 2.05,2013-03-05 11:07:00,
2013-03-05 06:17:00,44.2,28.6,30.15,North,-999,0.0,0.0,54,0.00,,,-99.99,FreeWX 2.05,2013-03-05 11:17:00,
2013-03-05 06:27:00,44.1,28.6,30.15,North,-999,0.0,0.0,54,0.00,,,-99.99,FreeWX 2.05,2013-03-05 11:27:00,
2013-03-05 06:37:00,44.1,28.6,30.15,North,-999,0.0,0.0,54,0.00,,,-99.99,FreeWX 2.05,2013-03-05 11:37:00,
2013-03-05 06:47:00,43.9,28.4,30.15,North,-999,0.0,0.0,54,0.00,,,-99.99,FreeWX 2.05,2013-03-05 11:47:00,
2013-03-05 06:57:00,44.1,28.9,30.15,North,-999,0.0,0.0,55,0.00,,,-99.99,FreeWX 2.05,2013-03-05 11:57:00,
2013-03-05 07:07:00,44.2,29.5,30.15,North,-999,0.0,0.0,56,0.00,,,-99.99,FreeWX 2.05,2013-03-05 12:07:00,
2013-03-05 07:17:00,44.6,29.8,30.18,North,-999,0.0,0.0,56,0.00,,,-99.99,FreeWX 2.05,2013-03-05 12:17:00,
2013-03-05 07:27:00,45.3,30.9,30.18,North,-999,0.0,0.0,57,0.00,,,-99.99,FreeWX 2.05,2013-03-05 12:27:00,
2013-03-05 07:37:00,46.0,32.2,30.15,North,-999,0.0,0.0,58,0.00,,,-99.99,FreeWX 2.05,2013-03-05 12:37:00,
2013-03-05 07:47:00,46.8,32.7,30.18,North,-999,0.0,0.0,58,0.00,,,-99.99,FreeWX 2.05,2013-03-05 12:47:00,
2013-03-05 07:57:00,47.8,34.2,30.18,North,-999,0.0,0.0,59,0.00,,,-99.99,FreeWX 2.05,2013-03-05 12:57:00,
2013-03-05 08:07:00,48.9,35.6,30.18,North,-999,0.0,0.0,60,0.00,,,-99.99,FreeWX 2.05,2013-03-05 13:07:00,
2013-03-05 08:17:00,50.4,37.4,30.18,North,-999,0.0,0.0,61,0.00,,,-99.99,FreeWX 2.05,2013-03-05 13:17:00,
2013-03-05 08:27:00,51.6,38.7,30.18,North,-999,0.0,3.1,61,0.00,,,-99.99,FreeWX 2.05,2013-03-05 13:27:00,
2013-03-05 08:37:00,53.1,40.5,30.18,North,-999,0.0,0.0,62,0.00,,,-99.99,FreeWX 2.05,2013-03-05 13:37:00,
2013-03-05 08:47:00,54.3,42.1,30.18,North,-999,0.0,3.6,63,0.00,,,-99.99,FreeWX 2.05,2013-03-05 13:47:00,
2013-03-05 08:57:00,55.8,43.3,30.18,North,355,2.0,4.9,63,0.00,,,-99.99,FreeWX 2.05,2013-03-05 13:57:00,
2013-03-05 09:07:00,57.2,45.1,30.18,North,351,2.0,4.9,64,0.00,,,-99.99,FreeWX 2.05,2013-03-05 14:07:00,
2013-03-05 09:17:00,58.5,46.4,30.18,North,352,1.0,4.0,64,0.00,,,-99.99,FreeWX 2.05,2013-03-05 14:17:00,
2013-03-05 09:27:00,59.5,46.9,30.18,NNW,348,2.0,5.8,63,0.00,,,-99.99,FreeWX 2.05,2013-03-05 14:27:00,
2013-03-05 09:37:00,60.4,46.9,30.18,North,7,1.0,4.9,61,0.00,,,-99.99,FreeWX 2.05,2013-03-05 14:37:00,
2013-03-05 09:47:00,61.2,46.2,30.18,NNW,345,2.0,4.9,58,0.00,,,-99.99,FreeWX 2.05,2013-03-05 14:47:00,
2013-03-05 09:57:00,61.9,45.0,30.18,NNW,343,1.0,5.4,54,0.00,,,-99.99,FreeWX 2.05,2013-03-05 14:57:00,
2013-03-05 10:07:00,62.6,44.8,30.18,NNE,27,3.0,6.7,52,0.00,,,-99.99,FreeWX 2.05,2013-03-05 15:07:00,
2013-03-05 10:17:00,63.3,44.4,30.18,NNE,24,4.0,6.9,50,0.00,,,-99.99,FreeWX 2.05,2013-03-05 15:17:00,
2013-03-05 10:27:00,64.0,43.3,30.18,North,11,4.0,7.4,47,0.00,,,-99.99,FreeWX 2.05,2013-03-05 15:27:00,
2013-03-05 10:37:00,65.1,43.2,30.18,North,7,4.0,6.9,45,0.00,,,-99.99,FreeWX 2.05,2013-03-05 15:37:00,
2013-03-05 10:47:00,65.7,42.6,30.18,NE,35,3.0,6.7,43,0.00,,,-99.99,FreeWX 2.05,2013-03-05 15:47:00,
2013-03-05 10:57:00,66.6,42.8,30.18,NE,44,2.0,6.3,42,0.00,,,-99.99,FreeWX 2.05,2013-03-05 15:57:00,
2013-03-05 11:07:00,67.1,41.9,30.18,NE,40,4.0,8.3,40,0.00,,,-99.99,FreeWX 2.05,2013-03-05 16:07:00,
2013-03-05 11:17:00,66.9,40.5,30.18,NE,47,5.0,9.6,38,0.00,,,-99.99,FreeWX 2.05,2013-03-05 16:17:00,
2013-03-05 11:27:00,67.1,39.9,30.18,NE,47,5.0,8.7,37,0.00,,,-99.99,FreeWX 2.05,2013-03-05 16:27:00,
2013-03-05 11:37:00,68.2,40.3,30.18,NE,40,5.0,9.2,36,0.00,,,-99.99,FreeWX 2.05,2013-03-05 16:37:00,
2013-03-05 11:47:00,68.2,39.6,30.18,NE,46,6.0,12.5,35,0.00,,,-99.99,FreeWX 2.05,2013-03-05 16:47:00,
2013-03-05 11:57:00,68.4,38.8,30.18,NE,48,6.0,11.2,34,0.00,,,-99.99,FreeWX 2.05,2013-03-05 16:57:00,
2013-03-05 12:07:00,68.5,39.0,30.18,NE,38,6.0,8.7,34,0.00,,,-99.99,FreeWX 2.05,2013-03-05 17:07:00,
2013-03-05 12:17:00,69.4,39.0,30.18,NNE,32,5.0,9.6,33,0.00,,,-99.99,FreeWX 2.05,2013-03-05 17:17:00,
2013-03-05 12:27:00,69.8,39.4,30.18,NE,50,5.0,9.2,33,0.00,,,-99.99,FreeWX 2.05,2013-03-05 17:27:00,
2013-03-05 12:37:00,69.8,38.7,30.15,NNE,27,5.0,10.1,32,0.00,,,-99.99,FreeWX 2.05,2013-03-05 17:37:00,
2013-03-05 12:47:00,70.3,39.0,30.15,NNE,30,5.0,8.7,32,0.00,,,-99.99,FreeWX 2.05,2013-03-05 17:47:00,
2013-03-05 12:57:00,71.2,39.0,30.15,NNE,26,4.0,7.4,31,0.00,,,-99.99,FreeWX 2.05,2013-03-05 17:57:00,
2013-03-05 13:07:00,71.1,38.8,30.15,NNE,31,5.0,8.7,31,0.00,,,-99.99,FreeWX 2.05,2013-03-05 18:07:00,
2013-03-05 13:17:00,71.6,38.5,30.12,NNE,24,5.0,9.2,30,0.00,,,-99.99,FreeWX 2.05,2013-03-05 18:17:00,
2013-03-05 13:27:00,72.0,37.9,30.12,NNE,29,5.0,10.1,29,0.00,,,-99.99,FreeWX 2.05,2013-03-05 18:27:00,
2013-03-05 13:37:00,72.3,36.5,30.12,NNE,21,5.0,10.1,27,0.00,,,-99.99,FreeWX 2.05,2013-03-05 18:37:00,
2013-03-05 13:47:00,73.0,37.0,30.12,NNE,32,5.0,9.2,27,0.00,,,-99.99,FreeWX 2.05,2013-03-05 18:47:00,
2013-03-05 13:57:00,73.4,35.4,30.12,NNE,33,6.0,9.2,25,0.00,,,-99.99,FreeWX 2.05,2013-03-05 18:57:00,
2013-03-05 14:07:00,73.9,34.9,30.12,NNE,33,5.0,9.2,24,0.00,,,-99.99,FreeWX 2.05,2013-03-05 19:07:00,
2013-03-05 14:17:00,74.7,35.4,30.12,NE,34,5.0,8.7,24,0.00,,,-99.99,FreeWX 2.05,2013-03-05 19:17:00,
2013-03-05 14:27:00,74.7,34.3,30.12,NE,37,5.0,10.5,23,0.00,,,-99.99,FreeWX 2.05,2013-03-05 19:27:00,
2013-03-05 14:37:00,74.3,34.2,30.12,NE,37,6.0,10.1,23,0.00,,,-99.99,FreeWX 2.05,2013-03-05 19:37:00,
2013-03-05 14:47:00,74.5,34.2,30.12,NE,40,5.0,11.6,23,0.00,,,-99.99,FreeWX 2.05,2013-03-05 19:47:00,
2013-03-05 14:57:00,74.7,33.3,30.12,NNE,29,5.0,11.2,22,0.00,,,-99.99,FreeWX 2.05,2013-03-05 19:57:00,
2013-03-05 15:07:00,75.4,33.8,30.12,NE,53,5.0,9.2,22,0.00,,,-99.99,FreeWX 2.05,2013-03-05 20:07:00,
2013-03-05 15:17:00,75.2,33.8,30.12,NE,48,6.0,10.5,22,0.00,,,-99.99,FreeWX 2.05,2013-03-05 20:17:00,
2013-03-05 15:27:00,74.5,33.1,30.12,NE,45,6.0,11.0,22,0.00,,,-99.99,FreeWX 2.05,2013-03-05 20:27:00,
2013-03-05 15:37:00,74.5,33.1,30.12,NE,49,5.0,10.1,22,0.00,,,-99.99,FreeWX 2.05,2013-03-05 20:37:00,
2013-03-05 15:47:00,73.8,33.6,30.12,NE,43,6.0,12.1,23,0.00,,,-99.99,FreeWX 2.05,2013-03-05 20:47:00,
2013-03-05 15:57:00,73.2,33.3,30.12,NE,50,6.0,11.6,23,0.00,,,-99.99,FreeWX 2.05,2013-03-05 20:57:00,
2013-03-05 16:07:00,73.0,33.1,30.12,NE,56,5.0,9.2,23,0.00,,,-99.99,FreeWX 2.05,2013-03-05 21:07:00,
2013-03-05 16:17:00,72.1,33.3,30.12,NE,40,6.0,11.6,24,0.00,,,-99.99,FreeWX 2.05,2013-03-05 21:17:00,
2013-03-05 16:27:00,71.6,32.9,30.12,NE,43,6.0,11.2,24,0.00,,,-99.99,FreeWX 2.05,2013-03-05 21:27:00,
2013-03-05 16:37:00,72.0,34.2,30.12,NE,46,4.0,7.8,25,0.00,,,-99.99,FreeWX 2.05,2013-03-05 21:37:00,
2013-03-05 16:47:00,71.4,33.8,30.09,NE,38,5.0,10.1,25,0.00,,,-99.99,FreeWX 2.05,2013-03-05 21:47:00,
2013-03-05 16:57:00,70.9,34.3,30.09,ENE,61,5.0,10.5,26,0.00,,,-99.99,FreeWX 2.05,2013-03-05 21:57:00,
2013-03-05 17:07:00,70.7,35.1,30.12,NE,51,5.0,10.1,27,0.00,,,-99.99,FreeWX 2.05,2013-03-05 22:07:00,
2013-03-05 17:17:00,70.2,34.7,30.12,NE,45,6.0,9.6,27,0.00,,,-99.99,FreeWX 2.05,2013-03-05 22:17:00,
2013-03-05 17:27:00,69.8,36.1,30.12,NE,40,5.0,8.3,29,0.00,,,-99.99,FreeWX 2.05,2013-03-05 22:27:00,
2013-03-05 17:37:00,69.3,37.4,30.09,NE,35,5.0,9.2,31,0.00,,,-99.99,FreeWX 2.05,2013-03-05 22:37:00,
2013-03-05 17:47:00,68.9,37.8,30.09,NE,49,5.0,9.2,32,0.00,,,-99.99,FreeWX 2.05,2013-03-05 22:47:00,
2013-03-05 17:57:00,68.4,38.1,30.09,NE,36,5.0,9.6,33,0.00,,,-99.99,FreeWX 2.05,2013-03-05 22:57:00,
2013-03-05 18:07:00,68.0,37.8,30.09,NE,36,4.0,9.6,33,0.00,,,-99.99,FreeWX 2.05,2013-03-05 23:07:00,
2013-03-05 18:17:00,67.6,37.6,30.09,NNE,33,4.0,9.2,33,0.00,,,-99.99,FreeWX 2.05,2013-03-05 23:17:00,
2013-03-05 18:27:00,67.3,37.9,30.09,NNE,26,3.0,6.7,34,0.00,,,-99.99,FreeWX 2.05,2013-03-05 23:27:00,
2013-03-05 18:37:00,66.9,38.3,30.09,NNE,33,4.0,7.4,35,0.00,,,-99.99,FreeWX 2.05,2013-03-05 23:37:00,
2013-03-05 18:47:00,66.6,38.1,30.09,NE,36,3.0,6.3,35,0.00,,,-99.99,FreeWX 2.05,2013-03-05 23:47:00,
2013-03-05 18:57:00,66.2,38.5,30.09,NNE,32,3.0,8.7,36,0.00,,,-99.99,FreeWX 2.05,2013-03-05 23:57:00,
2013-03-05 19:07:00,66.0,39.0,30.09,NNE,31,3.0,6.7,37,0.00,,,-99.99,FreeWX 2.05,2013-03-06 00:07:00,
2013-03-05 19:17:00,65.8,40.1,30.09,NE,34,2.0,7.4,39,0.00,,,-99.99,FreeWX 2.05,2013-03-06 00:17:00,
2013-03-05 19:27:00,65.7,40.6,30.09,NE,36,1.0,5.8,40,0.00,,,-99.99,FreeWX 2.05,2013-03-06 00:27:00,
2013-03-05 19:37:00,65.5,41.7,30.09,North,-999,0.0,5.4,42,0.00,,,-99.99,FreeWX 2.05,2013-03-06 00:37:00,
2013-03-05 19:47:00,65.3,42.3,30.09,North,-999,0.0,5.4,43,0.00,,,-99.99,FreeWX 2.05,2013-03-06 00:47:00,
2013-03-05 19:57:00,65.1,42.1,30.09,North,-999,0.0,2.7,43,0.00,,,-99.99,FreeWX 2.05,2013-03-06 00:57:00,
2013-03-05 20:07:00,64.9,42.4,30.09,North,-999,0.0,4.0,44,0.00,,,-99.99,FreeWX 2.05,2013-03-06 01:07:00,
2013-03-05 20:17:00,64.9,43.2,30.06,NE,34,1.0,5.4,45,0.00,,,-99.99,FreeWX 2.05,2013-03-06 01:17:00,
2013-03-05 20:27:00,64.9,43.7,30.06,NNE,31,2.0,7.4,46,0.00,,,-99.99,FreeWX 2.05,2013-03-06 01:27:00,
2013-03-05 20:38:00,64.8,44.6,30.06,NNE,33,2.0,6.9,48,0.00,,,-99.99,FreeWX 2.05,2013-03-06 01:38:00,
2013-03-05 20:48:00,64.9,45.9,30.06,NNE,24,2.0,6.7,50,0.00,,,-99.99,FreeWX 2.05,2013-03-06 01:48:00,
2013-03-05 20:58:00,64.9,47.8,30.06,NNE,33,3.0,6.7,54,0.00,,,-99.99,FreeWX 2.05,2013-03-06 01:58:00,
2013-03-05 21:08:00,64.9,48.4,30.06,NE,38,3.0,6.7,55,0.00,,,-99.99,FreeWX 2.05,2013-03-06 02:08:00,
2013-03-05 21:18:00,64.9,49.3,30.06,NE,36,4.0,6.9,57,0.00,,,-99.99,FreeWX 2.05,2013-03-06 02:18:00,
2013-03-05 21:28:00,65.1,51.3,30.06,NE,37,4.0,6.9,61,0.00,,,-99.99,FreeWX 2.05,2013-03-06 02:28:00,
2013-03-05 21:38:00,65.1,52.2,30.06,NNE,30,4.0,7.8,63,0.00,,,-99.99,FreeWX 2.05,2013-03-06 02:38:00,
2013-03-05 21:48:00,65.1,52.7,30.06,NNE,32,4.0,7.8,64,0.00,,,-99.99,FreeWX 2.05,2013-03-06 02:48:00,
2013-03-05 21:58:00,65.1,53.4,30.06,NE,40,4.0,7.8,66,0.00,,,-99.99,FreeWX 2.05,2013-03-06 02:58:00,
2013-03-05 22:08:00,65.1,54.0,30.06,NE,45,4.0,7.8,67,0.00,,,-99.99,FreeWX 2.05,2013-03-06 03:08:00,
2013-03-05 22:18:00,65.3,54.5,30.06,NE,38,4.0,7.8,68,0.00,,,-99.99,FreeWX 2.05,2013-03-06 03:18:00,
2013-03-05 22:28:00,65.5,54.7,30.06,NE,37,5.0,8.3,68,0.00,,,-99.99,FreeWX 2.05,2013-03-06 03:28:00,
2013-03-05 22:38:00,65.8,55.0,30.06,NNE,32,4.0,8.3,68,0.00,,,-99.99,FreeWX 2.05,2013-03-06 03:38:00,
2013-03-05 22:48:00,66.0,55.2,30.06,NE,38,4.0,8.3,68,0.00,,,-99.99,FreeWX 2.05,2013-03-06 03:48:00,
2013-03-05 22:58:00,66.0,55.2,30.06,NE,38,4.0,8.3,68,0.00,,,-99.99,FreeWX 2.05,2013-03-06 03:58:00,
2013-03-05 23:08:00,66.0,55.2,30.06,NE,35,4.0,7.8,68,0.00,,,-99.99,FreeWX 2.05,2013-03-06 04:08:00,
2013-03-05 23:18:00,66.0,55.2,30.06,NE,41,4.0,8.3,68,0.00,,,-99.99,FreeWX 2.05,2013-03-06 04:18:00,
2013-03-05 23:28:00,65.8,54.5,30.06,NE,41,4.0,7.4,67,0.00,,,-99.99,FreeWX 2.05,2013-03-06 04:28:00,
2013-03-05 23:38:00,65.8,54.5,30.06,NE,45,3.0,5.4,67,0.00,,,-99.99,FreeWX 2.05,2013-03-06 04:38:00,
2013-03-05 23:48:00,65.8,54.5,30.06,NE,43,3.0,6.7,67,0.00,,,-99.99,FreeWX 2.05,2013-03-06 04:48:00,
2013-03-05 23:58:00,66.0,54.7,30.06,NE,37,3.0,8.3,67,0.00,,,-99.99,FreeWX 2.05,2013-03-06 04:58:00,